EW0013 Weather Reports


time (UTC)temp
C
wind
direction
speed
KPH
gust
KPH
rain 1hr
cm
rain 24hr
cm
rain mn
cm
humidity
%
barometer
mb
20260505035514 10 261 0.0 1.6 0.03 0.38 0.38 84 1010.5
20260505035016 10 261 0.0 0.0 0.03 0.38 0.38 84 1010.5
20260505034524 10 261 0.0 0.0 0.03 0.38 0.38 84 1010.5
20260505034025 10 261 0.0 0.0 0.03 0.38 0.38 84 1010.5
20260505033526 10 261 0.0 0.0 0.03 0.38 0.38 84 1010.6
20260505033034 10 261 0.0 1.6 0.03 0.38 0.38 84 1010.6
20260505032513 10 261 0.0 1.6 0.03 0.38 0.38 84 1010.5
20260505032041 10 261 0.0 1.6 0.03 0.38 0.38 83 1010.4
20260505031522 10 261 0.0 3.2 0.05 0.38 0.38 84 1010.3
20260505031030 10 261 0.0 3.2 0.05 0.38 0.38 83 1010.4
20260505030559 10 261 0.0 1.6 0.03 0.36 0.36 84 1010.3
20260505030018 10 261 0.0 4.8 0.03 0.36 0.36 83 1010.2
20260505025520 10 261 0.0 4.8 0.03 0.36 0.36 83 1010.2
20260505025020 10 261 0.0 3.2 0.03 0.36 0.36 82 1010.1
20260505024549 10 261 0.0 3.2 0.03 0.36 0.36 81 1010.1
20260505024037 11 261 0.0 1.6 0.05 0.36 0.36 80 1010.0
20260505023519 11 261 0.0 0.0 0.05 0.36 0.36 78 1010.0
20260505023020 11 261 0.0 0.0 0.05 0.36 0.36 77 1009.9
20260505022521 11 261 0.0 0.0 0.05 0.36 0.36 76 1009.8
20260505022029 11 261 0.0 1.6 0.05 0.36 0.36 74 1009.8
20260505021531 11 261 0.0 3.2 0.03 0.33 0.33 72 1009.6
20260505021039 11 261 1.6 4.8 0.05 0.33 0.33 72 1009.6
20260505020540 11 261 3.2 6.4 0.05 0.33 0.33 72 1009.6
20260505020027 11 261 0.0 9.7 0.05 0.33 0.33 72 1009.6
20260505015528 11 261 3.2 9.7 0.08 0.33 0.33 73 1009.6
20260505015030 11 260 3.2 8.0 0.08 0.33 0.33 73 1009.6
20260505014539 11 287 1.6 6.4 0.08 0.33 0.33 72 1009.6
20260505014020 11 298 1.6 6.4 0.05 0.30 0.30 72 1009.5
20260505013522 11 319 3.2 8.0 0.08 0.30 0.30 71 1009.4
20260505013030 11 255 3.2 8.0 0.08 0.30 0.30 70 1009.4
20260505012531 12 265 3.2 8.0 0.08 0.30 0.30 70 1009.4
20260505012013 12 343 3.2 8.0 0.10 0.30 0.30 69 1009.4
20260505011522 12 300 3.2 8.0 0.10 0.30 0.30 68 1009.4
20260505011023 12 292 3.2 8.0 0.10 0.28 0.28 68 1009.4
20260505010520 12 269 3.2 12.9 0.10 0.28 0.28 67 1009.4
20260505010028 12 277 4.8 14.5 0.13 0.28 0.28 65 1009.4
20260505005514 13 339 6.4 16.1 0.10 0.25 0.25 63 1009.4
20260505005015 13 5 4.8 16.1 0.10 0.25 0.25 63 1009.4
20260505004524 13 327 6.4 12.9 0.13 0.25 0.25 63 1009.2
20260505004024 13 339 1.6 8.0 0.13 0.25 0.25 65 1009.1
20260505003534 13 333 0.0 6.4 0.10 0.23 0.23 66 1009.0
20260505003013 13 333 0.0 6.4 0.10 0.23 0.23 66 1009.0
20260505002517 13 336 1.6 6.4 0.08 0.20 0.20 68 1009.0
20260505002038 13 302 1.6 3.2 0.08 0.20 0.20 68 1008.9
20260505001524 13 278 0.0 3.2 0.10 0.20 0.20 68 1008.8
20260505001024 13 265 0.0 1.6 0.08 0.18 0.18 69 1008.7
20260505000532 13 265 0.0 0.0 0.08 0.18 0.18 70 1008.6
20260505000014 13 265 0.0 0.0 0.05 0.15 0.15 69 1008.5
20260504235515 13 265 0.0 0.0 0.05 0.15 0.15 70 1008.6
20260504235016 13 265 0.0 0.0 0.03 0.13 0.13 71 1008.8
20260504234525 13 265 0.0 0.0 0.03 0.13 0.13 71 1008.6
20260504234027 13 265 0.0 0.0 0.03 0.13 0.13 71 1008.7
20260504233534 13 265 0.0 0.0 0.03 0.13 0.13 68 1008.7
20260504233019 13 265 0.0 1.6 0.05 0.13 0.13 69 1008.7
20260504232520 14 265 0.0 0.0 0.05 0.13 0.13 67 1008.6
20260504232028 14 265 0.0 0.0 0.05 0.13 0.13 67 1008.5
20260504231529 14 265 0.0 3.2 0.03 0.10 0.10 67 1008.5
20260504231030 14 265 0.0 3.2 0.03 0.10 0.10 64 1008.6
20260504230539 14 232 0.0 14.5 0.03 0.10 0.10 58 1008.4
20260504230020 15 272 1.6 9.7 0.03 0.10 0.10 63 1008.8
20260504225522 15 286 3.2 9.7 0.03 0.10 0.10 56 1008.7
20260504225030 15 271 4.8 9.7 0.03 0.10 0.10 56 1008.6
20260504224551 15 198 0.0 3.2 0.03 0.10 0.10 53 1008.5
20260504224019 15 198 0.0 3.2 0.03 0.10 0.10 59 1008.4
20260504223520 15 148 0.0 1.6 0.03 0.10 0.10 59 1008.5
20260504223022 15 117 0.0 1.6 0.00 0.08 0.08 59 1008.3
20260504222529 15 115 0.0 0.0 0.03 0.08 0.08 59 1008.1
20260504222037 15 115 0.0 0.0 0.03 0.08 0.08 60 1007.9
20260504221518 15 115 0.0 0.0 0.03 0.08 0.08 59 1007.7
20260504221019 15 115 0.0 1.6 0.03 0.08 0.08 59 1007.5
20260504220548 15 115 0.0 4.8 0.03 0.08 0.08 59 1007.3
20260504220044 15 115 0.0 4.8 0.03 0.08 0.08 58 1007.1
20260504215516 15 26 0.0 3.2 0.03 0.08 0.08 59 1006.9
20260504215017 15 355 0.0 4.8 0.05 0.08 0.08 58 1006.9
20260504214542 15 355 0.0 8.0 0.05 0.08 0.08 57 1007.0
20260504214042 14 294 1.6 11.3 0.05 0.08 0.08 58 1007.1
20260504213530 14 346 3.2 11.3 0.05 0.08 0.08 60 1007.4
20260504213057 13 325 1.6 8.0 0.08 0.08 0.08 61 1007.4
20260504212515 13 259 1.6 14.5 0.05 0.05 0.05 61 1007.6
20260504212016 13 326 1.6 14.5 0.05 0.05 0.05 60 1008.0
20260504211523 13 327 4.8 19.3 0.05 0.05 0.05 62 1008.4
20260504211024 13 335 6.4 19.3 0.05 0.05 0.05 63 1008.8
20260504210532 13 340 0.0 1.6 0.05 0.05 0.05 64 1008.6
20260504210013 14 339 0.0 9.7 0.05 0.05 0.05 61 1008.8
20260504205514 14 339 0.0 14.5 0.05 0.05 0.05 57 1008.8
20260504205024 15 300 3.2 14.5 0.03 0.03 0.03 56 1008.6
20260504204524 16 331 1.6 24.1 0.03 0.03 0.03 56 1008.6
20260504204026 17 319 3.2 24.1 0.03 0.03 0.03 52 1008.3
20260504203535 18 324 4.8 24.1 0.03 0.03 0.03 41 1008.2
20260504203016 20 13 4.8 24.1 0.00 0.00 0.00 32 1007.8
20260504202517 21 323 3.2 14.5 0.00 0.00 0.00 30 1007.6
20260504202026 21 67 6.4 16.1 0.00 0.00 0.00 25 1007.0
20260504201548 22 306 6.4 16.1 0.00 0.00 0.00 22 1006.9
20260504201034 23 326 1.6 8.0 0.00 0.00 0.00 21 1006.5
20260504200515 23 317 1.6 11.3 0.00 0.00 0.00 21 1006.5
20260504200016 23 317 1.6 11.3 0.00 0.00 0.00 20 1006.5
20260504195525 24 334 1.6 11.3 0.00 0.00 0.00 21 1006.5
20260504195025 24 341 4.8 11.3 0.00 0.00 0.00 20 1006.5
20260504194514 24 298 4.8 11.3 0.00 0.00 0.00 22 1006.4
20260504194035 23 303 3.2 12.9 0.00 0.00 0.00 22 1006.5
20260504193523 23 336 3.2 20.9 0.00 0.00 0.00 21 1006.6
20260504193024 23 338 4.8 20.9 0.00 0.00 0.00 22 1006.6
20260504192532 23 329 6.4 17.7 0.00 0.00 0.00 22 1006.5
20260504192032 24 271 6.4 12.9 0.00 0.00 0.00 21 1006.6
20260504191600 23 263 8.0 12.9 0.00 0.00 0.00 21 1006.6
20260504191021 23 254 6.4 11.3 0.00 0.00 0.00 22 1006.6
20260504190523 23 272 6.4 12.9 0.00 0.00 0.00 22 1006.6
20260504190032 23 253 8.0 12.9 0.00 0.00 0.00 21 1006.6
20260504185532 23 241 4.8 11.3 0.00 0.00 0.00 23 1006.6
20260504185032 22 252 4.8 14.5 0.00 0.00 0.00 24 1006.7
20260504184513 22 256 8.0 14.5 0.00 0.00 0.00 23 1006.7
20260504184041 22 259 4.8 11.3 0.00 0.00 0.00 21 1006.8
20260504183528 22 246 8.0 11.3 0.00 0.00 0.00 23 1006.8
20260504183030 22 304 8.0 19.3 0.00 0.00 0.00 24 1006.9
20260504182537 22 250 8.0 19.3 0.00 0.00 0.00 23 1007.0
20260504182039 21 248 8.0 17.7 0.00 0.00 0.00 25 1007.0
20260504181525 21 253 8.0 17.7 0.00 0.00 0.00 25 1007.1
20260504181025 21 251 6.4 14.5 0.00 0.00 0.00 26 1007.4
20260504180552 21 236 6.4 16.1 0.00 0.00 0.00 26 1007.5
20260504180032 21 270 9.7 17.7 0.00 0.00 0.00 25 1007.5
20260504175518 21 204 11.3 17.7 0.00 0.00 0.00 26 1007.6
20260504175039 21 213 9.7 20.9 0.00 0.00 0.00 27 1007.7
20260504174526 20 250 9.7 20.9 0.00 0.00 0.00 28 1007.7
20260504174028 20 259 11.3 16.1 0.00 0.00 0.00 27 1007.7
20260504173514 20 258 11.3 17.7 0.00 0.00 0.00 28 1007.8
20260504173035 20 261 6.4 14.5 0.00 0.00 0.00 28 1008.1
20260504172542 19 264 3.2 9.7 0.00 0.00 0.00 29 1008.0
20260504172029 19 250 1.6 6.4 0.00 0.00 0.00 28 1008.1
20260504171530 19 268 1.6 8.0 0.00 0.00 0.00 29 1008.2
20260504171031 18 271 3.2 9.7 0.00 0.00 0.00 30 1008.2
20260504170513 18 265 3.2 9.7 0.00 0.00 0.00 30 1008.2
20260504151025 17 244 8.0 11.3 0.00 0.00 0.00 31 1008.5
20260504150532 17 234 6.4 12.9 0.00 0.00 0.00 31 1008.5
20260504141029 8 333 0.0 0.0 0.00 0.00 0.00 63 1008.4
20260504140536 8 333 0.0 0.0 0.00 0.00 0.00 63 1008.4
20260504130521 4 333 0.0 0.0 0.00 0.00 0.00 63 1008.6
20260504110532 3 333 0.0 0.0 0.00 0.00 0.00 61 1008.6
20260504100512 4 333 0.0 1.6 0.00 0.00 0.00 58 1008.9
20260504081514 7 333 0.0 0.0 0.00 0.00 0.00 50 1009.5
20260504081022 7 333 0.0 1.6 0.00 0.00 0.00 50 1009.6
20260504080524 7 333 0.0 1.6 0.00 0.00 0.00 51 1009.7
20260504050529 15 330 1.6 6.4 0.00 0.00 0.00 30 1010.3
20260504045558 15 332 1.6 8.0 0.00 0.00 0.00 29 1010.1
20260504045019 15 333 3.2 11.3 0.00 0.00 0.00 28 1010.1
20260504044520 15 344 1.6 11.3 0.00 0.00 0.00 28 1010.2
20260504044028 15 336 3.2 8.0 0.00 0.00 0.00 30 1010.1
20260504043529 15 262 0.0 3.2 0.00 0.00 0.00 30 1010.1
20260504043031 15 262 0.0 1.6 0.00 0.00 0.00 30 1010.1
20260504042539 15 262 0.0 0.0 0.00 0.00 0.00 30 1009.9
20260504042020 15 262 0.0 0.0 0.00 0.00 0.00 30 1009.9
20260504041520 15 262 0.0 0.0 0.00 0.00 0.00 29 1010.0
20260504041027 16 262 0.0 0.0 0.00 0.00 0.00 29 1009.9
20260504040534 16 262 0.0 0.0 0.00 0.00 0.00 29 1010.0
20260504040015 16 262 0.0 1.6 0.00 0.00 0.00 29 1010.0